Location: Del Amo
(33.8464°N, 118.2104°W)
Time: 17:09:49
(UTC+00:00)

SR - Pass Details

Date: 22 September 2024
Orbit: 577 x 856 km, 66.7° (Epoch: 11 October)

Event Time Altitude Azimuth Distance (km) Brightness Sun altitude
Rises 04:23:04 0° 337° (NNW) 3,004 ? -31.7°
Reaches altitude 10° 04:25:19 10° 341° (NNW) 2,130 ? -32.1°
Enters shadow 04:27:13 24° 347° (NNW) 1,439 ? -32.5°
